28-02-2022, 00:00:02,    160,    0.0,    3.2,   0.00,   0.00, 1018.3,   75.4, -999.0
28-02-2022, 00:00:12,    219,    0.9,    3.2,   0.00,   0.00, 1018.4,   75.6, -999.0
28-02-2022, 00:00:22,    220,    0.0,    3.1,   0.00,   0.00, 1018.3,   75.2, -999.0
28-02-2022, 00:00:32,    214,    0.0,    3.1,   0.00,   0.00, 1018.2,   75.2, -999.0
28-02-2022, 00:00:42,    214,    0.0,    3.1,   0.00,   0.00, 1018.3,   75.2, -999.0
28-02-2022, 00:00:52,    211,    0.1,    3.1,   0.00,   0.00, 1018.3,   75.3, -999.0
28-02-2022, 00:01:02,    211,    0.0,    3.0,   0.00,   0.00, 1018.3,   75.2, -999.0
28-02-2022, 00:01:12,    210,    0.0,    3.1,   0.00,   0.00, 1018.2,   75.2, -999.0
28-02-2022, 00:01:22,    210,    0.0,    3.1,   0.00,   0.00, 1018.2,   75.3, -999.0
28-02-2022, 00:01:32,    205,    0.0,    3.1,   0.00,   0.00, 1018.3,   75.1, -999.0
28-02-2022, 00:01:42,    205,    0.0,    3.1,   0.00,   0.00, 1018.3,   75.2, -999.0
28-02-2022, 00:01:52,    205,    0.0,    3.1,   0.00,   0.00, 1018.3,   75.2, -999.0
28-02-2022, 00:02:02,    205,    0.0,    3.1,   0.00,   0.00, 1018.3,   75.3, -999.0
28-02-2022, 00:02:11,    206,    0.0,    3.1,   0.00,   0.00, 1018.4,   75.4, -999.0
28-02-2022, 00:02:22,    153,    0.3,    3.2,   0.00,   0.00, 1018.4,   75.7, -999.0
28-02-2022, 00:02:32,    147,    0.0,    3.1,   0.00,   0.00, 1018.3,   75.4, -999.0
28-02-2022, 00:02:41,    148,    0.0,    3.1,   0.00,   0.00, 1018.3,   75.3, -999.0
28-02-2022, 00:02:51,    148,    0.0,    3.1,   0.00,   0.00, 1018.3,   75.3, -999.0
28-02-2022, 00:03:02,    148,    0.0,    3.1,   0.00,   0.00, 1018.3,   75.4, -999.0
28-02-2022, 00:03:11,    149,    0.0,    3.1,   0.00,   0.00, 1018.3,   75.4, -999.0
28-02-2022, 00:03:21,    149,    0.0,    3.1,   0.00,   0.00, 1018.3,   75.3, -999.0
28-02-2022, 00:03:31,    149,    0.0,    3.1,   0.00,   0.00, 1018.2,   75.3, -999.0
28-02-2022, 00:03:41,    149,    0.0,    3.0,   0.00,   0.00, 1018.3,   75.5, -999.0
28-02-2022, 00:03:51,    149,    0.0,    3.1,   0.00,   0.00, 1018.2,   75.3, -999.0
28-02-2022, 00:04:01,    148,    0.0,    3.0,   0.00,   0.00, 1018.3,   75.5, -999.0
28-02-2022, 00:04:11,    151,    0.0,    3.1,   0.00,   0.00, 1018.2,   75.4, -999.0
28-02-2022, 00:04:21,    154,    0.0,    3.1,   0.00,   0.00, 1018.3,   75.5, -999.0
28-02-2022, 00:04:31,    154,    0.0,    3.1,   0.00,   0.00, 1018.3,   75.5, -999.0
28-02-2022, 00:04:41,    153,    0.0,    3.0,   0.00,   0.00, 1018.3,   75.5, -999.0
28-02-2022, 00:04:51,    162,    0.0,    3.1,   0.00,   0.00, 1018.3,   75.6, -999.0
28-02-2022, 00:05:01,    162,    0.0,    3.1,   0.00,   0.00, 1018.3,   75.4, -999.0
28-02-2022, 00:05:11,    165,    0.0,    3.1,   0.00,   0.00, 1018.2,   75.5, -999.0
28-02-2022, 00:05:20,    165,    0.0,    3.0,   0.00,   0.00, 1018.2,   75.5, -999.0
28-02-2022, 00:05:31,    165,    0.0,    3.1,   0.00,   0.00, 1018.2,   75.5, -999.0
28-02-2022, 00:05:41,    165,    0.0,    3.1,   0.00,   0.00, 1018.3,   75.5, -999.0
28-02-2022, 00:05:50,    165,    0.0,    3.0,   0.00,   0.00, 1018.3,   75.5, -999.0
28-02-2022, 00:06:01,    154,    0.4,    3.1,   0.00,   0.00, 1018.3,   75.8, -999.0
28-02-2022, 00:06:11,    154,    0.8,    3.2,   0.00,   0.00, 1018.4,   75.9, -999.0
28-02-2022, 00:06:20,    157,    0.0,    3.1,   0.00,   0.00, 1018.3,   75.7, -999.0
28-02-2022, 00:06:30,    157,    0.0,    2.9,   0.00,   0.00, 1018.2,   75.6, -999.0
28-02-2022, 00:06:41,    162,    0.0,    3.1,   0.00,   0.00, 1018.3,   75.6, -999.0
28-02-2022, 00:06:50,    163,    0.0,    3.1,   0.00,   0.00, 1018.2,   75.6, -999.0
28-02-2022, 00:07:00,    164,    0.5,    3.1,   0.00,   0.00, 1018.3,   75.9, -999.0
28-02-2022, 00:07:10,    174,    0.8,    3.2,   0.00,   0.00, 1018.3,   76.0, -999.0
28-02-2022, 00:07:20,    173,    0.0,    3.1,   0.00,   0.00, 1018.2,   75.6, -999.0
28-02-2022, 00:07:30,    173,    0.3,    3.2,   0.00,   0.00, 1018.3,   76.0, -999.0
28-02-2022, 00:07:40,    127,    0.6,    3.2,   0.00,   0.00, 1018.3,   76.2, -999.0
28-02-2022, 00:07:50,    128,    0.3,    3.3,   0.00,   0.00, 1018.3,   76.2, -999.0
28-02-2022, 00:08:00,    128,    0.0,    3.2,   0.00,   0.00, 1018.2,   76.0, -999.0
28-02-2022, 00:08:10,    128,    0.5,    3.4,   0.00,   0.00, 1018.3,   76.2, -999.0
28-02-2022, 00:08:20,    182,    0.0,    3.3,   0.00,   0.00, 1018.2,   75.8, -999.0
28-02-2022, 00:08:30,    177,    0.4,    3.3,   0.00,   0.00, 1018.3,   76.0, -999.0
28-02-2022, 00:08:40,    177,    0.0,    3.2,   0.00,   0.00, 1018.2,   75.8, -999.0
28-02-2022, 00:08:50,    177,    0.0,    3.2,   0.00,   0.00, 1018.2,   75.7, -999.0
28-02-2022, 00:09:00,    176,    0.0,    3.2,   0.00,   0.00, 1018.2,   75.6, -999.0
28-02-2022, 00:09:10,    176,    0.0,    3.2,   0.00,   0.00, 1018.2,   75.7, -999.0
28-02-2022, 00:09:20,    138,    0.7,    3.2,   0.00,   0.00, 1018.3,   76.0, -999.0
28-02-2022, 00:09:30,    173,    0.3,    3.3,   0.00,   0.00, 1018.3,   75.8, -999.0
28-02-2022, 00:09:39,    172,    0.4,    3.3,   0.00,   0.00, 1018.4,   75.9, -999.0
28-02-2022, 00:09:50,    126,    0.2,    3.3,   0.00,   0.00, 1018.4,   75.9, -999.0
28-02-2022, 00:09:59,    126,    0.1,    3.1,   0.00,   0.00, 1018.3,   75.6, -999.0
28-02-2022, 00:10:09,    150,    0.3,    3.3,   0.00,   0.00, 1018.4,   75.8, -999.0
28-02-2022, 00:10:19,    155,    0.2,    3.3,   0.00,   0.00, 1018.3,   75.6, -999.0
28-02-2022, 00:10:29,    155,    0.0,    3.2,   0.00,   0.00, 1018.2,   75.5, -999.0
28-02-2022, 00:10:39,    155,    0.0,    3.1,   0.00,   0.00, 1018.2,   75.5, -999.0
28-02-2022, 00:10:49,    155,    0.0,    3.1,   0.00,   0.00, 1018.2,   75.5, -999.0
28-02-2022, 00:10:59,    154,    0.0,    3.0,   0.00,   0.00, 1018.2,   75.6, -999.0
28-02-2022, 00:11:09,    150,    0.1,    3.2,   0.00,   0.00, 1018.3,   75.7, -999.0
28-02-2022, 00:11:19,    150,    0.2,    3.2,   0.00,   0.00, 1018.3,   75.6, -999.0
28-02-2022, 00:11:29,    152,    0.0,    3.1,   0.00,   0.00, 1018.3,   75.6, -999.0
28-02-2022, 00:11:39,    152,    0.0,    3.1,   0.00,   0.00, 1018.3,   75.6, -999.0
28-02-2022, 00:11:49,    152,    0.0,    3.2,   0.00,   0.00, 1018.2,   75.5, -999.0
28-02-2022, 00:11:59,    152,    0.0,    3.2,   0.00,   0.00, 1018.2,   75.7, -999.0
28-02-2022, 00:12:09,    152,    0.0,    3.2,   0.00,   0.00, 1018.2,   75.8, -999.0
28-02-2022, 00:12:19,    151,    0.2,    3.3,   0.00,   0.00, 1018.3,   76.0, -999.0
28-02-2022, 00:12:29,    137,    0.9,    3.2,   0.00,   0.00, 1018.3,   76.1, -999.0
28-02-2022, 00:12:39,    142,    0.4,    3.3,   0.00,   0.00, 1018.4,   76.1, -999.0
28-02-2022, 00:12:48,    154,    0.1,    3.2,   0.00,   0.00, 1018.3,   76.0, -999.0
28-02-2022, 00:12:59,    153,    1.9,    3.2,   0.00,   0.00, 1018.4,   76.0, -999.0
28-02-2022, 00:13:09,    159,    1.5,    3.3,   0.00,   0.00, 1018.4,   76.1, -999.0
28-02-2022, 00:13:18,    157,    0.8,    3.2,   0.00,   0.00, 1018.3,   76.0, -999.0
28-02-2022, 00:13:29,    133,    0.7,    3.2,   0.00,   0.00, 1018.3,   75.7, -999.0
28-02-2022, 00:13:39,    153,    0.5,    3.3,   0.00,   0.00, 1018.4,   75.9, -999.0
28-02-2022, 00:13:48,    152,    0.2,    3.1,   0.00,   0.00, 1018.2,   75.8, -999.0
28-02-2022, 00:13:58,    152,    0.5,    3.2,   0.00,   0.00, 1018.3,   75.9, -999.0
28-02-2022, 00:14:09,    152,    0.0,    3.1,   0.00,   0.00, 1018.2,   75.6, -999.0
28-02-2022, 00:14:18,    152,    0.1,    3.1,   0.00,   0.00, 1018.2,   75.8, -999.0
28-02-2022, 00:14:28,    152,    0.7,    3.2,   0.00,   0.00, 1018.3,   76.0, -999.0
28-02-2022, 00:14:38,    152,    0.3,    3.2,   0.00,   0.00, 1018.2,   76.0, -999.0
28-02-2022, 00:14:48,    153,    0.3,    3.2,   0.00,   0.00, 1018.2,   76.0, -999.0
28-02-2022, 00:14:58,    153,    0.3,    3.2,   0.00,   0.00, 1018.2,   75.9, -999.0
28-02-2022, 00:15:08,    153,    0.9,    3.2,   0.00,   0.00, 1018.2,   76.1, -999.0
28-02-2022, 00:15:18,    152,    1.3,    3.1,   0.00,   0.00, 1018.2,   75.9, -999.0
28-02-2022, 00:15:28,    152,    0.1,    3.2,   0.00,   0.00, 1018.1,   75.7, -999.0
28-02-2022, 00:15:38,    125,    1.3,    3.2,   0.00,   0.00, 1018.2,   76.0, -999.0
28-02-2022, 00:15:48,    125,    0.5,    3.3,   0.00,   0.00, 1018.2,   76.1, -999.0
28-02-2022, 00:15:58,    126,    0.0,    3.2,   0.00,   0.00, 1018.0,   75.9, -999.0
28-02-2022, 00:16:08,    150,    0.3,    3.3,   0.00,   0.00, 1018.1,   76.0, -999.0
28-02-2022, 00:16:18,    151,    0.0,    3.2,   0.00,   0.00, 1018.1,   75.9, -999.0
28-02-2022, 00:16:27,    152,    0.4,    3.2,   0.00,   0.00, 1018.1,   75.9, -999.0
28-02-2022, 00:16:38,    152,    1.8,    3.3,   0.00,   0.00, 1018.2,   76.0, -999.0
28-02-2022, 00:16:48,    159,    1.3,    3.2,   0.00,   0.00, 1018.2,   75.9, -999.0
28-02-2022, 00:16:57,    166,    0.3,    3.2,   0.00,   0.00, 1018.2,   75.8, -999.0
28-02-2022, 00:17:07,    161,    0.9,    3.1,   0.00,   0.00, 1018.2,   75.8, -999.0
28-02-2022, 00:17:18,    176,    1.3,    3.1,   0.00,   0.00, 1018.2,   75.9, -999.0
28-02-2022, 00:17:27,    191,    0.7,    3.2,   0.00,   0.00, 1018.2,   75.9, -999.0
28-02-2022, 00:17:37,    191,    0.0,    3.1,   0.00,   0.00, 1018.1,   75.6, -999.0
28-02-2022, 00:17:48,    191,    0.0,    3.2,   0.00,   0.00, 1018.0,   75.7, -999.0
28-02-2022, 00:17:57,    160,    0.0,    3.2,   0.00,   0.00, 1018.1,   75.8, -999.0
28-02-2022, 00:18:07,    160,    0.0,    3.3,   0.00,   0.00, 1018.1,   75.9, -999.0
28-02-2022, 00:18:17,    160,    0.1,    3.2,   0.00,   0.00, 1018.1,   76.0, -999.0
28-02-2022, 00:18:27,    128,    0.0,    3.2,   0.00,   0.00, 1018.1,   76.0, -999.0
28-02-2022, 00:18:37,    128,    0.1,    3.4,   0.00,   0.00, 1018.1,   76.2, -999.0
28-02-2022, 00:18:47,    131,    0.1,    3.3,   0.00,   0.00, 1018.1,   76.2, -999.0
28-02-2022, 00:18:57,    133,    0.2,    3.3,   0.00,   0.00, 1018.1,   76.1, -999.0
28-02-2022, 00:19:07,    133,    0.0,    3.2,   0.00,   0.00, 1018.0,   75.8, -999.0
28-02-2022, 00:19:17,    140,    0.0,    3.3,   0.00,   0.00, 1018.1,   75.8, -999.0
28-02-2022, 00:19:27,    133,    0.0,    3.2,   0.00,   0.00, 1018.0,   75.6, -999.0
28-02-2022, 00:19:37,    131,    0.6,    3.3,   0.00,   0.00, 1018.2,   76.0, -999.0
28-02-2022, 00:19:47,    134,    0.1,    3.3,   0.00,   0.00, 1018.1,   75.8, -999.0
28-02-2022, 00:19:57,    134,    0.0,    3.1,   0.00,   0.00, 1018.0,   75.5, -999.0
28-02-2022, 00:20:07,    134,    0.1,    3.2,   0.00,   0.00, 1018.1,   75.6, -999.0
28-02-2022, 00:20:17,    164,    0.0,    3.2,   0.00,   0.00, 1018.0,   75.4, -999.0
28-02-2022, 00:20:27,    161,    0.2,    3.2,   0.00,   0.00, 1018.1,   75.4, -999.0
28-02-2022, 00:20:36,    135,    1.1,    3.1,   0.00,   0.00, 1018.2,   75.5, -999.0
28-02-2022, 00:20:46,    142,    2.2,    3.2,   0.00,   0.00, 1018.2,   75.6, -999.0
28-02-2022, 00:20:57,    168,    0.5,    3.1,   0.00,   0.00, 1018.1,   75.6, -999.0
28-02-2022, 00:21:06,    165,    0.1,    3.0,   0.00,   0.00, 1018.1,   75.4, -999.0
28-02-2022, 00:21:16,    164,    1.0,    3.0,   0.00,   0.00, 1018.2,   75.8, -999.0
28-02-2022, 00:21:26,    159,    0.5,    3.1,   0.00,   0.00, 1018.2,   75.8, -999.0
28-02-2022, 00:21:36,    157,    0.5,    3.1,   0.00,   0.00, 1018.2,   75.9, -999.0
28-02-2022, 00:21:46,    157,    0.0,    3.0,   0.00,   0.00, 1018.1,   75.7, -999.0
28-02-2022, 00:21:56,    151,    0.0,    3.0,   0.00,   0.00, 1018.1,   75.6, -999.0
28-02-2022, 00:22:06,    151,    0.0,    3.0,   0.00,   0.00, 1018.1,   75.6, -999.0
28-02-2022, 00:22:16,    151,    0.0,    2.9,   0.00,   0.00, 1018.0,   75.6, -999.0
28-02-2022, 00:22:26,    151,    0.0,    2.9,   0.00,   0.00, 1018.0,   75.6, -999.0
28-02-2022, 00:22:36,    150,    0.0,    3.0,   0.00,   0.00, 1018.1,   75.8, -999.0
28-02-2022, 00:22:46,    151,    0.0,    3.0,   0.00,   0.00, 1018.0,   76.0, -999.0
28-02-2022, 00:22:56,    135,    1.0,    3.0,   0.00,   0.00, 1018.2,   76.3, -999.0
28-02-2022, 00:23:06,    135,    0.0,    3.0,   0.00,   0.00, 1018.0,   76.0, -999.0
28-02-2022, 00:23:16,    136,    0.0,    3.0,   0.00,   0.00, 1018.0,   75.9, -999.0
28-02-2022, 00:23:26,    141,    0.1,    3.0,   0.00,   0.00, 1018.1,   76.1, -999.0
28-02-2022, 00:23:36,    156,    0.2,    3.0,   0.00,   0.00, 1018.2,   76.3, -999.0
28-02-2022, 00:23:46,    155,    0.1,    3.0,   0.00,   0.00, 1018.1,   76.2, -999.0
28-02-2022, 00:23:55,    155,    0.0,    2.9,   0.00,   0.00, 1018.0,   75.9, -999.0
28-02-2022, 00:24:06,    155,    0.0,    2.9,   0.00,   0.00, 1018.0,   76.0, -999.0
28-02-2022, 00:24:16,    155,    0.0,    2.9,   0.00,   0.00, 1018.0,   76.0, -999.0
28-02-2022, 00:24:25,    155,    0.0,    2.9,   0.00,   0.00, 1018.0,   76.2, -999.0
28-02-2022, 00:24:36,    155,    0.0,    3.0,   0.00,   0.00, 1018.0,   76.3, -999.0
28-02-2022, 00:24:46,    155,    0.0,    3.0,   0.00,   0.00, 1018.1,   76.4, -999.0
28-02-2022, 00:24:55,    155,    0.0,    3.1,   0.00,   0.00, 1018.1,   76.5, -999.0
28-02-2022, 00:25:05,    158,    0.0,    3.0,   0.00,   0.00, 1018.0,   76.4, -999.0
28-02-2022, 00:25:15,    182,    0.8,    3.1,   0.00,   0.00, 1018.2,   76.7, -999.0
28-02-2022, 00:25:25,    181,    0.1,    3.1,   0.00,   0.00, 1018.1,   76.4, -999.0
28-02-2022, 00:25:35,    181,    0.0,    3.0,   0.00,   0.00, 1018.1,   76.1, -999.0
28-02-2022, 00:25:45,    181,    0.0,    3.0,   0.00,   0.00, 1018.0,   76.1, -999.0
28-02-2022, 00:25:55,    179,    0.0,    2.8,   0.00,   0.00, 1018.1,   76.1, -999.0
28-02-2022, 00:26:05,    179,    0.0,    2.9,   0.00,   0.00, 1018.1,   76.2, -999.0
28-02-2022, 00:26:15,    176,    0.0,    2.9,   0.00,   0.00, 1018.1,   76.2, -999.0
28-02-2022, 00:26:25,    169,    0.2,    3.0,   0.00,   0.00, 1018.1,   76.4, -999.0
28-02-2022, 00:26:35,    171,    0.1,    3.0,   0.00,   0.00, 1018.1,   76.2, -999.0
28-02-2022, 00:26:45,    171,    0.0,    2.9,   0.00,   0.00, 1018.1,   76.1, -999.0
28-02-2022, 00:26:55,    168,    0.0,    2.9,   0.00,   0.00, 1018.1,   76.2, -999.0
28-02-2022, 00:27:05,    168,    0.0,    2.9,   0.00,   0.00, 1018.1,   76.1, -999.0
28-02-2022, 00:27:15,    168,    0.0,    2.9,   0.00,   0.00, 1018.1,   76.2, -999.0
28-02-2022, 00:27:25,    173,    0.1,    2.9,   0.00,   0.00, 1018.1,   76.2, -999.0
28-02-2022, 00:27:34,    178,    0.4,    3.0,   0.00,   0.00, 1018.2,   76.7, -999.0
28-02-2022, 00:27:45,    161,    0.1,    2.8,   0.00,   0.00, 1018.2,   76.5, -999.0
28-02-2022, 00:27:55,    161,    0.0,    3.0,   0.00,   0.00, 1018.1,   76.3, -999.0
28-02-2022, 00:28:04,    162,    0.0,    2.8,   0.00,   0.00, 1018.1,   76.3, -999.0
28-02-2022, 00:28:14,    161,    0.0,    2.9,   0.00,   0.00, 1018.1,   76.4, -999.0
28-02-2022, 00:28:25,    161,    0.0,    2.9,   0.00,   0.00, 1018.1,   76.4, -999.0
28-02-2022, 00:28:34,    162,    0.0,    2.8,   0.00,   0.00, 1018.1,   76.4, -999.0
28-02-2022, 00:28:44,    161,    0.0,    2.9,   0.00,   0.00, 1018.1,   76.3, -999.0
28-02-2022, 00:28:54,    161,    0.0,    2.8,   0.00,   0.00, 1018.1,   76.4, -999.0
28-02-2022, 00:29:04,    161,    0.0,    2.8,   0.00,   0.00, 1018.1,   76.4, -999.0
28-02-2022, 00:29:14,    162,    0.0,    2.9,   0.00,   0.00, 1018.1,   76.5, -999.0
28-02-2022, 00:29:24,    162,    0.0,    2.8,   0.00,   0.00, 1018.1,   76.4, -999.0
28-02-2022, 00:29:34,    161,    0.0,    2.8,   0.00,   0.00, 1018.1,   76.4, -999.0
28-02-2022, 00:29:44,    171,    0.0,    2.9,   0.00,   0.00, 1018.1,   76.5, -999.0
28-02-2022, 00:29:54,    174,    0.0,    2.8,   0.00,   0.00, 1018.2,   76.4, -999.0
28-02-2022, 00:30:04,    173,    0.0,    2.8,   0.00,   0.00, 1018.1,   76.5, -999.0
28-02-2022, 00:30:14,    172,    0.1,    2.9,   0.00,   0.00, 1018.2,   76.7, -999.0
28-02-2022, 00:30:24,    172,    0.0,    2.8,   0.00,   0.00, 1018.1,   76.6, -999.0
28-02-2022, 00:30:34,    172,    0.0,    2.7,   0.00,   0.00, 1018.1,   76.6, -999.0
28-02-2022, 00:30:44,    187,    0.3,    2.8,   0.00,   0.00, 1018.2,   76.9, -999.0
28-02-2022, 00:30:54,    186,    0.0,    2.9,   0.00,   0.00, 1018.1,   76.7, -999.0
28-02-2022, 00:31:04,    187,    0.0,    2.9,   0.00,   0.00, 1018.1,   76.6, -999.0
28-02-2022, 00:31:14,    186,    0.0,    2.9,   0.00,   0.00, 1018.1,   76.8, -999.0
28-02-2022, 00:31:23,    186,    0.0,    2.8,   0.00,   0.00, 1018.1,   76.6, -999.0
28-02-2022, 00:31:34,    186,    0.0,    2.8,   0.00,   0.00, 1018.1,   76.7, -999.0
28-02-2022, 00:31:44,    186,    0.0,    2.9,   0.00,   0.00, 1018.1,   76.6, -999.0
28-02-2022, 00:31:53,    186,    0.0,    2.8,   0.00,   0.00, 1018.1,   76.8, -999.0
28-02-2022, 00:32:03,    184,    0.2,    2.9,   0.00,   0.00, 1018.3,   77.1, -999.0
28-02-2022, 00:32:13,    134,    0.6,    3.0,   0.00,   0.00, 1018.3,   77.3, -999.0
28-02-2022, 00:32:23,    135,    0.6,    3.1,   0.00,   0.00, 1018.2,   77.5, -999.0
28-02-2022, 00:32:33,    134,    0.0,    3.1,   0.00,   0.00, 1018.2,   77.4, -999.0
28-02-2022, 00:32:43,    154,    0.7,    3.1,   0.00,   0.00, 1018.2,   77.5, -999.0
28-02-2022, 00:32:53,    154,    1.6,    3.1,   0.00,   0.00, 1018.3,   77.5, -999.0
28-02-2022, 00:33:03,    159,    0.5,    3.1,   0.00,   0.00, 1018.2,   77.4, -999.0
28-02-2022, 00:33:13,    142,    1.0,    3.0,   0.00,   0.00, 1018.2,   77.2, -999.0
28-02-2022, 00:33:23,    143,    1.6,    3.1,   0.00,   0.00, 1018.2,   77.3, -999.0
28-02-2022, 00:33:33,    143,    0.6,    3.1,   0.00,   0.00, 1018.2,   77.3, -999.0
28-02-2022, 00:33:43,    143,    0.1,    3.1,   0.00,   0.00, 1018.1,   77.2, -999.0
28-02-2022, 00:33:53,    143,    0.0,    3.0,   0.00,   0.00, 1018.1,   77.1, -999.0
28-02-2022, 00:34:03,    142,    0.0,    3.0,   0.00,   0.00, 1018.1,   77.1, -999.0
28-02-2022, 00:34:13,    147,    0.2,    3.0,   0.00,   0.00, 1018.1,   77.1, -999.0
28-02-2022, 00:34:23,    167,    0.9,    3.1,   0.00,   0.00, 1018.2,   77.3, -999.0
28-02-2022, 00:34:32,    163,    1.6,    3.0,   0.00,   0.00, 1018.2,   77.2, -999.0
28-02-2022, 00:34:43,    158,    0.6,    3.0,   0.00,   0.00, 1018.2,   77.2, -999.0
28-02-2022, 00:34:53,    148,    1.0,    3.1,   0.00,   0.00, 1018.2,   77.2, -999.0
28-02-2022, 00:35:02,    125,    0.6,    3.1,   0.00,   0.00, 1018.1,   77.3, -999.0
28-02-2022, 00:35:13,    130,    1.8,    3.1,   0.00,   0.00, 1018.2,   77.4, -999.0
28-02-2022, 00:35:23,    131,    2.3,    3.2,   0.00,   0.00, 1018.2,   77.4, -999.0
28-02-2022, 00:35:32,    156,    1.0,    3.2,   0.00,   0.00, 1018.2,   77.4, -999.0
28-02-2022, 00:35:42,    155,    0.1,    3.1,   0.00,   0.00, 1018.1,   77.2, -999.0
28-02-2022, 00:35:53,    157,    0.8,    3.2,   0.00,   0.00, 1018.2,   77.4, -999.0
28-02-2022, 00:36:02,    155,    0.6,    3.1,   0.00,   0.00, 1018.2,   77.3, -999.0
28-02-2022, 00:36:12,    112,    1.0,    3.2,   0.00,   0.00, 1018.2,   77.3, -999.0
28-02-2022, 00:36:22,    117,    1.4,    3.2,   0.00,   0.00, 1018.2,   77.3, -999.0
28-02-2022, 00:36:32,    120,    0.7,    3.3,   0.00,   0.00, 1018.2,   77.5, -999.0
28-02-2022, 00:36:42,    120,    0.5,    3.2,   0.00,   0.00, 1018.1,   77.3, -999.0
28-02-2022, 00:36:52,    114,    1.8,    3.3,   0.00,   0.00, 1018.2,   77.4, -999.0
28-02-2022, 00:37:02,    134,    1.5,    3.3,   0.00,   0.00, 1018.2,   77.5, -999.0
28-02-2022, 00:37:12,    110,    2.5,    3.3,   0.00,   0.00, 1018.1,   77.5, -999.0
28-02-2022, 00:37:22,    122,    1.5,    3.3,   0.00,   0.00, 1018.2,   77.4, -999.0
28-02-2022, 00:37:32,    133,    1.5,    3.4,   0.00,   0.00, 1018.2,   77.3, -999.0
28-02-2022, 00:37:42,    122,    1.9,    3.3,   0.00,   0.00, 1018.2,   77.2, -999.0
28-02-2022, 00:37:52,    124,    1.4,    3.3,   0.00,   0.00, 1018.2,   77.2, -999.0
28-02-2022, 00:38:02,    175,    0.6,    3.3,   0.00,   0.00, 1018.1,   77.1, -999.0
28-02-2022, 00:38:11,    133,    1.4,    3.3,   0.00,   0.00, 1018.2,   77.2, -999.0
28-02-2022, 00:38:22,    168,    2.7,    3.3,   0.00,   0.00, 1018.2,   77.1, -999.0
28-02-2022, 00:38:32,    126,    2.2,    3.3,   0.00,   0.00, 1018.2,   76.9, -999.0
28-02-2022, 00:38:41,    140,    0.8,    3.3,   0.00,   0.00, 1018.1,   77.0, -999.0
28-02-2022, 00:38:51,    140,    0.0,    3.2,   0.00,   0.00, 1018.0,   76.6, -999.0
28-02-2022, 00:39:02,    138,    0.5,    3.2,   0.00,   0.00, 1018.1,   76.8, -999.0
28-02-2022, 00:39:11,    129,    0.4,    3.2,   0.00,   0.00, 1018.1,   76.7, -999.0
28-02-2022, 00:39:21,    142,    0.9,    3.3,   0.00,   0.00, 1018.1,   76.9, -999.0
28-02-2022, 00:39:32,    141,    0.3,    3.2,   0.00,   0.00, 1018.1,   76.7, -999.0
28-02-2022, 00:39:41,    113,    0.8,    3.3,   0.00,   0.00, 1018.1,   76.9, -999.0
28-02-2022, 00:39:51,    130,    1.0,    3.3,   0.00,   0.00, 1018.1,   76.8, -999.0
28-02-2022, 00:40:01,    142,    0.9,    3.3,   0.00,   0.00, 1018.2,   77.0, -999.0
28-02-2022, 00:40:11,    162,    1.1,    3.2,   0.00,   0.00, 1018.1,   76.8, -999.0
28-02-2022, 00:40:21,    138,    0.8,    3.2,   0.00,   0.00, 1018.1,   76.8, -999.0
28-02-2022, 00:40:31,    159,    1.4,    3.3,   0.00,   0.00, 1018.1,   76.9, -999.0
28-02-2022, 00:40:41,    139,    1.1,    3.3,   0.00,   0.00, 1018.1,   76.9, -999.0
28-02-2022, 00:40:51,    142,    1.0,    3.2,   0.00,   0.00, 1018.1,   76.9, -999.0
28-02-2022, 00:41:01,    147,    1.0,    3.2,   0.00,   0.00, 1018.2,   76.8, -999.0
28-02-2022, 00:41:11,    150,    0.1,    3.1,   0.00,   0.00, 1018.1,   76.6, -999.0
28-02-2022, 00:41:21,    147,    0.5,    3.3,   0.00,   0.00, 1018.1,   76.7, -999.0
28-02-2022, 00:41:31,    141,    2.0,    3.1,   0.00,   0.00, 1018.1,   76.8, -999.0
28-02-2022, 00:41:41,    133,    1.5,    3.2,   0.00,   0.00, 1018.1,   76.8, -999.0
28-02-2022, 00:41:50,    120,    1.9,    3.2,   0.00,   0.00, 1018.1,   76.8, -999.0
28-02-2022, 00:42:01,    137,    2.8,    3.2,   0.00,   0.00, 1018.1,   76.9, -999.0
28-02-2022, 00:42:11,    155,    2.1,    3.2,   0.00,   0.00, 1018.1,   77.1, -999.0
28-02-2022, 00:42:20,    120,    0.9,    3.1,   0.00,   0.00, 1018.1,   76.9, -999.0
28-02-2022, 00:42:30,    124,    2.1,    3.2,   0.00,   0.00, 1018.1,   76.9, -999.0
28-02-2022, 00:42:41,    123,    1.5,    3.1,   0.00,   0.00, 1018.1,   76.9, -999.0
28-02-2022, 00:42:50,    138,    0.9,    3.1,   0.00,   0.00, 1018.1,   76.9, -999.0
28-02-2022, 00:43:00,    137,    2.6,    3.1,   0.00,   0.00, 1018.1,   77.0, -999.0
28-02-2022, 00:43:10,    161,    3.5,    3.1,   0.00,   0.00, 1018.1,   76.9, -999.0
28-02-2022, 00:43:20,    128,    1.9,    3.0,   0.00,   0.00, 1018.1,   76.9, -999.0
28-02-2022, 00:43:30,    140,    2.8,    3.0,   0.00,   0.00, 1018.2,   76.9, -999.0
28-02-2022, 00:43:40,    148,    1.9,    3.2,   0.00,   0.00, 1018.2,   77.0, -999.0
28-02-2022, 00:43:50,    151,    0.4,    3.1,   0.00,   0.00, 1018.1,   76.9, -999.0
28-02-2022, 00:44:00,    197,    2.4,    3.1,   0.00,   0.00, 1018.2,   77.0, -999.0
28-02-2022, 00:44:10,    142,    1.0,    3.2,   0.00,   0.00, 1018.2,   77.0, -999.0
28-02-2022, 00:44:20,    140,    0.2,    3.0,   0.00,   0.00, 1018.1,   76.7, -999.0
28-02-2022, 00:44:30,    150,    1.1,    3.0,   0.00,   0.00, 1018.2,   77.0, -999.0
28-02-2022, 00:44:40,    163,    2.7,    3.1,   0.00,   0.00, 1018.2,   77.1, -999.0
28-02-2022, 00:44:50,    138,    2.2,    3.1,   0.00,   0.00, 1018.2,   77.1, -999.0
28-02-2022, 00:45:00,    136,    2.8,    3.1,   0.00,   0.00, 1018.2,   77.1, -999.0
28-02-2022, 00:45:10,    161,    1.1,    3.1,   0.00,   0.00, 1018.2,   77.1, -999.0
28-02-2022, 00:45:20,    160,    0.7,    3.0,   0.00,   0.00, 1018.2,   77.2, -999.0
28-02-2022, 00:45:30,    166,    0.9,    3.1,   0.00,   0.00, 1018.2,   77.2, -999.0
28-02-2022, 00:45:40,    142,    0.4,    3.1,   0.00,   0.00, 1018.1,   77.4, -999.0
28-02-2022, 00:45:50,    143,    0.2,    3.1,   0.00,   0.00, 1018.1,   77.1, -999.0
28-02-2022, 00:45:59,    143,    0.0,    3.0,   0.00,   0.00, 1018.0,   77.0, -999.0
28-02-2022, 00:46:09,    150,    0.4,    3.1,   0.00,   0.00, 1018.1,   77.2, -999.0
28-02-2022, 00:46:20,    150,    0.2,    2.9,   0.00,   0.00, 1018.0,   77.0, -999.0
28-02-2022, 00:46:29,    135,    1.9,    3.1,   0.00,   0.00, 1018.1,   77.2, -999.0
28-02-2022, 00:46:39,    160,    4.4,    3.1,   0.00,   0.00, 1018.2,   77.2, -999.0